Theta_e
359 359 357 357 356 356 356 356 355 355 359 356 355 357 358 361 363 362 362 364 365 364 367 369 370 369 365 368 370 369 368 368 366 364 366 365 363 362 359 360 360 360
360 360 361 359 359 360 359 357 358 357 360 361 359 360 363 363 362 362 363 362 364 363 367 366 369 369 368 365 368 367 368 368 366 363 365 365 364 363 361 361 360 362
359 360 359 358 356 357 355 357 359 360 357 358 359 362 360 362 361 364 364 363 362 359 365 368 368 369 367 367 368 366 364 368 365 364 367 366 364 364 363 359 359 360
360 359 357 356 357 357 358 359 360 360 359 359 359 359 359 358 362 362 365 365 364 364 364 365 366 364 366 366 368 366 366 368 365 368 366 366 365 364 363 364 362 360
359 359 358 358 358 361 361 359 357 358 358 359 359 361 362 363 363 361 362 363 366 363 365 367 368 365 368 368 369 366 366 364 366 369 366 365 366 365 362 363 362 359
360 361 361 359 361 362 359 358 358 357 359 357 360 360 360 362 361 361 362 360 358 358 359 362 363 362 363 365 368 366 364 362 364 368 365 364 362 362 360 361 362 361
357 359 358 359 359 360 359 359 359 360 358 359 361 361 361 360 361 362 364 362 359 360 359 362 365 363 364 366 368 367 367 367 366 368 366 363 364 363 362 363 363 362
356 357 359 359 358 358 359 358 359 360 361 362 360 362 363 361 362 361 363 362 361 361 363 362 365 368 364 364 365 365 365 363 364 367 367 365 365 364 364 362 362 363
356 357 358 358 357 357 357 356 358 360 361 361 359 359 363 362 361 361 362 364 363 363 365 364 366 365 365 365 365 365 364 362 362 365 366 364 362 362 362 363 361 362
357 357 356 356 355 356 356 357 357 358 361 360 359 359 359 363 362 362 364 366 363 364 365 365 364 365 364 365 365 366 365 365 365 366 365 365 363 363 362 362 361 361
356 356 356 356 355 355 356 356 357 357 360 360 359 358 359 360 363 364 364 365 360 361 363 364 364 365 365 364 364 365 366 364 364 366 366 365 365 365 365 364 363 361
357 356 356 356 356 356 356 356 357 357 358 359 360 359 360 359 361 362 361 363 363 363 363 365 366 366 366 365 364 364 365 364 364 365 364 365 365 365 365 366 364 365
356 356 357 357 357 357 357 357 357 357 357 357 359 359 359 358 359 361 362 362 364 364 362 365 366 365 366 367 365 365 364 364 362 364 364 365 365 364 364 364 364 363
356 356 357 358 359 360 359 358 358 358 358 358 359 359 358 358 358 358 361 362 362 363 364 365 366 365 367 367 366 364 364 363 364 363 363 363 364 364 364 363 363 363
360 359 360 360 361 362 361 360 359 359 358 359 360 359 357 358 358 358 358 360 361 362 363 363 362 363 363 364 365 365 364 362 362 363 362 362 363 362 363 364 363 363
357 359 360 361 361 361 361 361 359 359 357 358 358 358 359 361 360 360 358 359 359 361 362 361 361 363 364 357 359 364 365 362 362 363 363 363 363 363 361 362 362 362
359 359 360 360 360 361 361 360 358 358 358 358 359 359 359 362 361 359 358 357 358 359 360 360 361 365 356 343 343 349 361 364 363 364 366 365 363 363 363 361 361 362
351 353 354 357 357 358 359 360 360 359 359 360 359 358 362 361 358 359 361 359 358 359 359 359 361 360 343 340 340 340 350 361 362 361 360 362 363 361 361 361 361 360
349 350 353 354 350 349 354 357 359 359 359 358 357 358 359 358 359 358 360 360 359 360 358 360 359 352 338 338 338 337 339 354 359 362 360 360 361 363 362 362 363 362
348 348 349 348 346 343 343 345 350 354 355 357 360 362 360 357 356 356 357 360 359 359 360 359 359 355 338 335 335 335 336 344 358 357 359 359 361 362 361 362 364 363
347 345 343 343 344 344 344 343 345 343 344 346 352 358 358 358 358 356 356 357 356 356 357 356 355 340 338 334 332 332 335 345 358 358 358 362 363 364 364 363 363 363
343 342 342 342 342 341 342 342 342 343 344 348 347 346 348 350 354 357 357 357 358 357 355 354 353 327 330 332 332 331 336 352 359 361 361 362 362 364 364 366 366 364
343 343 342 342 341 341 341 342 343 345 346 346 343 346 346 347 346 350 353 354 354 354 353 353 352 333 322 322 323 327 337 356 359 359 360 360 360 362 362 363 363 363
342 342 341 341 340 340 340 342 343 343 342 344 340 341 341 342 346 348 349 350 350 350 351 354 352 335 321 319 321 324 340 353 356 356 357 358 358 360 360 360 360 358
342 341 340 339 339 340 341 341 342 342 343 344 343 343 342 344 345 343 344 347 349 349 348 349 349 335 318 318 319 322 338 353 352 353 353 354 355 355 358 358 359 359
335 336 337 337 337 337 338 338 340 342 342 343 344 345 345 345 346 346 344 346 349 350 350 350 352 347 326 315 317 319 326 349 351 350 351 353 354 354 355 357 358 359
Wind_Speed
10 9 8 7 7 6 7 7 7 7 6 5 6 6 6 5 6 6 6 5 5 5 5 4 4 4 4 4 4 4 3 4 4 3 3 4 4 4 4 3 3 2
11 10 8 7 6 6 6 7 7 7 6 6 6 5 5 5 6 6 6 6 6 7 5 5 5 5 6 5 5 5 4 4 5 3 3 5 5 5 5 4 4 2
11 11 11 11 9 10 10 8 7 7 7 7 7 5 5 5 6 6 6 7 7 7 6 5 6 5 6 6 5 5 5 4 5 5 4 4 4 4 5 5 4 4
12 12 11 12 10 10 9 8 7 6 6 6 7 7 6 5 5 6 6 7 6 6 6 6 6 6 6 6 5 5 5 5 5 4 4 4 5 5 5 5 5 5
13 12 11 10 9 8 8 8 9 8 8 7 7 7 6 6 6 6 6 6 6 7 6 6 6 6 6 5 5 5 5 5 5 5 5 5 5 6 6 5 5 6
11 10 10 10 9 9 9 9 9 9 9 9 8 7 7 7 7 7 7 7 7 8 8 7 7 7 7 6 6 6 6 6 5 5 6 7 7 6 5 5 6 6
13 12 13 11 11 10 10 9 9 9 8 8 7 8 7 7 7 8 7 7 8 8 8 7 7 7 6 6 6 6 6 7 7 6 7 7 6 7 7 6 6 7
14 12 12 11 12 11 11 10 9 9 8 8 8 8 8 8 8 8 8 8 8 8 8 8 7 7 8 7 7 7 7 6 7 7 7 8 7 7 7 6 6 7
13 12 12 13 13 12 12 12 11 10 9 9 9 8 8 8 8 9 8 8 8 7 7 8 8 8 7 7 7 8 8 8 7 7 7 8 8 8 8 7 7 7
12 12 13 13 14 12 13 13 11 10 9 10 10 9 8 8 9 9 8 8 8 8 8 8 8 8 8 8 8 9 8 8 8 8 8 8 8 8 8 7 7 7
12 12 12 13 14 12 14 13 12 11 9 10 10 10 9 8 8 8 8 8 9 9 9 9 9 8 8 9 8 8 8 9 8 8 8 8 8 8 8 8 8 8
12 11 12 13 14 13 13 13 12 12 11 10 10 10 9 9 9 8 8 9 9 10 9 9 9 9 9 9 9 9 8 9 8 8 9 8 8 8 8 8 8 8
11 12 12 12 12 12 11 11 11 11 11 11 10 10 10 10 9 9 8 9 10 10 10 9 9 9 9 9 9 9 9 9 9 9 9 8 8 9 9 9 9 8
13 13 13 12 11 9 10 10 10 10 11 10 9 10 10 10 10 10 9 9 9 9 9 9 9 9 9 9 9 9 9 9 9 9 9 9 9 9 9 9 9 9
8 9 10 11 11 9 9 10 10 10 10 9 9 10 9 10 10 10 9 9 9 9 9 8 8 8 8 8 8 9 9 9 9 9 9 9 9 10 9 9 9 9
10 11 10 10 10 11 10 10 10 10 10 11 11 10 10 9 9 9 9 9 9 9 9 8 8 6 7 10 9 7 8 7 7 8 9 8 8 9 9 10 10 10
6 8 9 10 9 8 9 10 11 10 10 10 10 10 10 9 9 10 10 9 10 9 9 8 7 6 9 11 12 12 9 8 8 8 8 8 9 9 9 10 10 10
7 8 9 9 8 6 7 9 10 9 9 9 9 10 8 8 10 11 10 10 9 9 9 8 8 8 11 12 12 13 12 10 8 8 8 8 9 9 9 9 10 10
9 11 9 8 7 6 5 3 5 7 8 8 9 9 7 8 9 9 9 9 9 9 9 8 8 8 11 11 12 12 12 12 10 8 9 9 9 9 9 9 9 9
5 6 6 4 4 3 3 5 3 2 2 3 5 5 6 8 9 9 8 8 8 8 8 8 8 8 10 11 12 12 13 9 8 11 10 10 10 10 9 9 9 9
7 6 6 6 6 6 6 7 7 2 6 6 6 4 4 6 7 7 7 7 8 7 7 7 4 9 2 7 10 11 10 8 10 10 11 10 10 10 10 10 9 9
9 8 6 6 6 6 5 4 4 4 4 3 2 2 5 9 8 5 3 3 1 1 3 2 0 10 8 7 5 7 7 7 8 9 10 10 9 9 9 8 8 9
9 8 7 7 8 6 4 3 3 4 1 2 2 2 1 4 7 7 4 4 3 2 3 2 2 7 9 8 7 3 5 5 6 6 7 8 9 8 7 7 8 8
5 6 5 6 7 6 4 3 3 1 1 1 4 5 3 4 4 6 6 6 7 7 5 2 2 6 8 8 3 5 4 4 3 5 6 6 7 7 7 7 8 11
4 4 5 5 6 5 5 4 2 2 3 3 4 5 5 4 5 5 5 5 4 7 10 7 1 3 5 6 4 4 4 2 2 3 4 5 5 6 6 6 7 8
8 8 7 6 6 6 4 4 3 1 0 2 4 5 4 4 4 5 6 5 6 7 5 6 6 2 6 4 3 4 4 3 4 5 8 8 7 7 7 8 8 8
Wind_Direction
191 192 198 199 206 210 207 205 210 213 213 217 218 214 216 217 208 215 222 225 227 234 230 237 241 243 244 237 234 238 247 261 274 267 261 260 259 261 262 263 265 268
194 191 189 196 197 199 207 210 205 209 206 210 221 217 214 213 212 214 220 224 224 229 229 234 236 237 243 242 228 235 239 241 253 247 255 249 257 262 262 265 274 282
196 194 195 200 205 205 211 207 208 210 215 217 216 217 217 212 217 207 216 220 226 229 220 225 230 228 238 240 238 241 241 240 252 253 244 253 257 259 267 270 262 264
201 201 203 208 210 206 204 200 201 207 214 208 213 217 215 217 207 210 209 210 220 223 231 234 234 239 236 240 239 244 244 246 254 257 253 252 252 261 266 262 265 267
205 203 205 207 209 205 203 206 213 208 213 216 218 209 206 207 215 223 215 210 212 224 222 226 225 232 231 239 238 246 247 250 239 232 246 254 255 253 259 261 262 264
203 202 200 202 201 202 208 212 213 215 214 215 216 216 215 210 219 227 222 220 219 225 230 230 227 229 231 232 233 241 251 254 250 236 248 254 259 257 257 262 266 266
204 202 205 203 207 206 213 214 214 214 216 220 213 215 214 213 213 218 218 219 226 226 230 230 225 230 229 231 230 234 237 246 255 249 252 258 257 259 258 258 263 268
209 205 204 204 207 208 210 213 214 211 211 209 214 214 212 218 217 220 217 218 222 222 227 229 226 225 237 237 237 238 244 243 240 237 244 256 261 263 263 265 265 265
208 206 202 202 206 210 212 215 213 213 208 212 218 220 213 218 217 220 214 212 219 223 219 227 225 233 236 237 240 240 247 252 252 247 246 252 254 253 258 261 261 261
209 211 208 207 209 211 214 216 218 214 207 215 220 222 219 213 217 218 211 207 216 217 220 227 229 230 234 233 232 236 242 242 245 246 249 250 255 259 258 255 256 257
222 215 213 212 213 214 214 214 217 216 210 214 219 224 224 218 210 214 213 210 219 221 222 224 227 228 228 234 234 233 234 241 244 242 243 246 252 257 259 261 260 259
238 229 221 216 216 218 217 215 215 216 215 210 216 222 219 218 215 212 213 215 219 222 223 222 222 223 224 231 235 235 233 238 239 240 243 245 248 249 250 251 254 256
222 243 243 229 220 221 221 218 217 217 215 215 210 216 217 218 216 215 213 220 219 222 227 223 221 223 222 222 229 232 234 237 242 240 242 243 245 248 251 251 252 253
205 213 228 235 233 224 223 221 219 218 217 216 211 211 217 220 220 216 215 221 224 225 227 226 222 223 219 220 224 227 228 232 234 241 245 245 246 247 250 252 251 252
205 218 215 209 212 215 218 223 222 218 214 211 208 215 220 223 222 224 224 223 224 227 229 228 229 226 224 221 220 222 229 235 235 237 241 244 245 249 248 248 250 251
189 215 219 215 207 205 210 214 220 219 215 212 211 214 220 220 225 228 231 229 229 226 229 231 232 230 214 215 221 231 229 236 237 238 241 244 244 248 251 248 248 250
203 229 222 220 215 204 199 205 216 219 219 214 212 213 216 211 219 230 233 235 234 234 234 233 231 225 212 210 216 225 236 238 236 235 234 235 239 240 249 253 254 251
211 238 246 234 225 237 213 196 197 207 213 209 211 212 204 215 222 225 229 233 234 236 240 239 237 219 211 214 219 221 225 238 241 242 241 238 238 244 244 250 253 254
188 195 201 208 203 226 269 225 185 191 201 208 212 208 200 209 216 223 227 230 231 231 239 243 248 224 208 215 220 223 224 232 246 250 248 244 246 243 248 250 252 255
196 201 186 107 99 112 267 278 257 146 47 295 239 198 200 207 213 219 224 226 231 234 236 242 247 239 209 212 216 219 224 212 242 251 249 255 249 246 249 248 246 250
183 162 141 149 160 169 171 222 239 201 171 193 243 269 251 214 218 223 223 229 237 241 246 252 269 24 281 223 221 221 222 209 235 242 247 243 242 243 244 248 247 246
166 146 134 130 134 148 159 197 226 231 232 250 254 256 302 311 301 283 264 262 281 244 228 229 137 60 27 352 291 233 195 217 233 239 246 247 245 241 241 240 242 245
142 138 140 143 149 154 174 175 214 227 199 79 71 116 131 295 294 284 302 297 282 255 220 183 191 86 71 41 350 289 207 233 234 239 241 247 251 249 244 242 241 240
87 112 121 129 134 145 141 152 179 95 80 183 223 254 233 210 261 313 330 324 308 286 269 231 103 76 103 125 193 271 267 241 243 243 248 249 251 249 249 248 243 235
49 65 97 107 115 122 127 129 138 176 185 175 218 228 225 228 259 253 262 269 266 274 280 290 334 147 139 131 147 231 256 272 257 254 260 259 259 256 252 253 253 241
19 30 32 41 62 71 73 75 75 79 201 230 236 226 216 195 203 223 231 240 234 236 237 251 251 155 64 69 165 215 261 273 274 265 265 265 263 263 266 261 261 263